Weather History for K21D - February, 2013

Change the Weather History Date:

Wednesday, February 20, 2013

  Actual Average (KSTP) Record (KSTP)
Temperature  
Mean Temperature 4 °F -  
Max Temperature 14 °F 30 °F 46 °F (1998)
Min Temperature -5 °F 16 °F -9 °F (2008)
Degree Days  
Heating Degree Days 60    
Moisture  
Dew Point -3 °F    
Average Humidity 69    
Maximum Humidity 85    
Minimum Humidity 53    
Precipitation  
Precipitation 0.00 in - - ()
Sea Level Pressure  
Sea Level Pressure 30.41 in    
Wind  
Wind Speed 4 mph (North)    
Max Wind Speed 8 mph    
Max Gust Speed -    
Visibility 10 miles    
Events      
Averages and records for this station are not official NWS values.
T = Trace of Precipitation, MM = Missing Value Source: NWS Daily Summary

Daily Weather History Graph

Daily Weather History Graph

Search for Another Location

Airport or City:

Trip Planner

Search our weather history database for the weather conditions in past years. The results will help you decide how hot, cold, wet, or windy it might be!

Date:

Astronomy

Feb. 20, 2013 Rise Set
Actual Time 7:03 AM CST 5:46 PM CST
Civil Twilight 6:34 AM CST 6:16 PM CST
Nautical Twilight 6:00 AM CST 6:50 PM CST
Astronomical Twilight 5:26 AM CST 7:24 PM CST
Moon 1:00 PM CST (2/20) 3:32 AM CST (2/20)
Length of Visible Light 11h 42m
Length of Day
10h 42m
Waxing Gibbous, 76% of the Moon is Illuminated
Feb 20
Waxing Gibbous
Feb 25
Full
Mar 4
Last Quarter
Mar 11
New
Mar 19
First Quarter

Hourly Weather History & Observations

Time (CST) Temp. Windchill Dew Point Humidity Pressure Visibility Wind Dir Wind Speed Gust Speed Precip Events Conditions
12:15 AM -0.4 °F -13.4 °F -7.6 °F 72% 30.34 in 10.0 mi NW 6.9 mph - N/A   Clear
12:35 AM -0.4 °F -13.4 °F -7.6 °F 72% 30.35 in 10.0 mi NNW 6.9 mph - N/A   Clear
12:55 AM -0.4 °F -12.0 °F -9.4 °F 66% 30.36 in 10.0 mi NW 5.8 mph - N/A   Clear
1:15 AM -0.4 °F -12.0 °F -9.4 °F 66% 30.37 in 10.0 mi WNW 5.8 mph - N/A   Clear
1:35 AM -0.4 °F -13.4 °F -9.4 °F 66% 30.38 in 10.0 mi WNW 6.9 mph - N/A   Clear
1:55 AM -0.4 °F -10.4 °F -9.4 °F 66% 30.38 in 10.0 mi NW 4.6 mph - N/A   Clear
2:15 AM -0.4 °F -8.3 °F -9.4 °F 66% 30.38 in 10.0 mi NW 3.5 mph - N/A   Clear
2:35 AM -2.2 °F -12.5 °F -9.4 °F 71% 30.39 in 10.0 mi NNW 4.6 mph - N/A   Clear
2:55 AM -2.2 °F -14.2 °F -7.6 °F 78% 30.39 in 10.0 mi NW 5.8 mph - N/A   Clear
3:15 AM -2.2 °F -15.6 °F -9.4 °F 71% 30.39 in 10.0 mi NNW 6.9 mph - N/A   Clear
3:35 AM -2.2 °F -10.4 °F -9.4 °F 71% 30.40 in 10.0 mi NW 3.5 mph - N/A   Clear
3:55 AM -4.0 °F -16.3 °F -9.4 °F 78% 30.39 in 10.0 mi NW 5.8 mph - N/A   Clear
4:15 AM -4.0 °F -14.6 °F -9.4 °F 78% 30.40 in 10.0 mi NW 4.6 mph - N/A   Clear
4:35 AM -4.0 °F -12.4 °F -9.4 °F 78% 30.40 in 10.0 mi NW 3.5 mph - N/A   Clear
4:55 AM -4.0 °F -14.6 °F -9.4 °F 78% 30.41 in 10.0 mi NW 4.6 mph - N/A   Clear
5:15 AM -4.0 °F -12.4 °F -9.4 °F 78% 30.41 in 10.0 mi NW 3.5 mph - N/A   Clear
5:35 AM -4.0 °F -12.4 °F -9.4 °F 78% 30.42 in 10.0 mi NW 3.5 mph - N/A   Clear
6:15 AM -4.0 °F -14.6 °F -9.4 °F 78% 30.42 in 10.0 mi NNW 4.6 mph - N/A   Clear
6:35 AM -5.8 °F -14.5 °F -9.4 °F 84% 30.42 in 10.0 mi NNW 3.5 mph - N/A   Clear
7:15 AM -5.8 °F - -9.4 °F 84% 30.43 in 10.0 mi Calm Calm - N/A   Clear
7:35 AM -5.8 °F - -9.4 °F 84% 30.44 in 10.0 mi Calm Calm - N/A   Clear
8:15 AM -4.0 °F -16.3 °F -9.4 °F 78% 30.44 in 10.0 mi NNW 5.8 mph - N/A   Clear
8:35 AM -2.2 °F -12.5 °F -7.6 °F 78% 30.44 in 10.0 mi North 4.6 mph - N/A   Scattered Clouds
9:15 AM -0.4 °F -13.4 °F -5.8 °F 78% 30.43 in 10.0 mi NE 6.9 mph - N/A   Overcast
9:35 AM 1.4 °F -12.5 °F -4.0 °F 78% 30.44 in 10.0 mi NE 8.1 mph - N/A   Overcast
9:55 AM 1.4 °F -11.3 °F -4.0 °F 78% 30.44 in 10.0 mi NNE 6.9 mph - N/A   Overcast
10:15 AM 1.4 °F -6.2 °F -4.0 °F 78% 30.44 in 10.0 mi ENE 3.5 mph - N/A   Overcast
10:35 AM 5.0 °F - -4.0 °F 66% 30.44 in 10.0 mi Calm Calm - N/A   Mostly Cloudy
10:55 AM 5.0 °F - -4.0 °F 66% 30.44 in 10.0 mi Calm Calm - N/A   Scattered Clouds
11:15 AM 6.8 °F -0.1 °F -2.2 °F 67% 30.44 in 10.0 mi East 3.5 mph - N/A   Clear
11:35 AM 8.6 °F - -2.2 °F 62% 30.44 in 10.0 mi Calm Calm - N/A   Clear
11:55 AM 6.8 °F - -2.2 °F 67% 30.44 in 10.0 mi Calm Calm - N/A   Clear
12:15 PM 8.6 °F - -0.4 °F 67% 30.44 in 10.0 mi Calm Calm - N/A   Clear
12:35 PM 8.6 °F - -0.4 °F 67% 30.42 in 10.0 mi Calm Calm - N/A   Clear
12:55 PM 10.4 °F - -0.4 °F 62% 30.43 in 10.0 mi Calm Calm - N/A   Clear
1:15 PM 10.4 °F - -0.4 °F 62% 30.43 in 10.0 mi Calm Calm - N/A   Clear
1:35 PM 12.2 °F 6.1 °F -0.4 °F 57% 30.43 in 10.0 mi WSW 3.5 mph - N/A   Clear
1:55 PM 12.2 °F - 1.4 °F 62% 30.44 in 10.0 mi Calm Calm - N/A   Clear
2:15 PM 12.2 °F 6.1 °F 1.4 °F 62% 30.44 in 10.0 mi West 3.5 mph - N/A   Clear
2:35 PM 14.0 °F 8.2 °F 1.4 °F 57% 30.44 in 10.0 mi NW 3.5 mph - N/A   Clear
2:55 PM 14.0 °F 6.5 °F 1.4 °F 57% 30.44 in 10.0 mi North 4.6 mph - N/A   Clear
3:15 PM 14.0 °F 6.5 °F 1.4 °F 57% 30.43 in 10.0 mi North 4.6 mph - N/A   Clear
3:35 PM 14.0 °F 6.5 °F -0.4 °F 53% 30.42 in 10.0 mi North 4.6 mph - N/A   Clear
3:55 PM 14.0 °F 6.5 °F 1.4 °F 57% 30.42 in 10.0 mi North 4.6 mph - N/A   Clear
4:15 PM 14.0 °F 8.2 °F 1.4 °F 57% 30.42 in 10.0 mi NNE 3.5 mph - N/A   Clear
4:35 PM 14.0 °F 6.5 °F 1.4 °F 57% 30.42 in 10.0 mi NE 4.6 mph - N/A   Clear
4:55 PM 14.0 °F 6.5 °F 1.4 °F 57% 30.42 in 10.0 mi NNE 4.6 mph - N/A   Clear
5:15 PM 14.0 °F 5.1 °F 1.4 °F 57% 30.41 in 10.0 mi NNE 5.8 mph - N/A   Clear
5:35 PM 12.2 °F 2.9 °F 1.4 °F 62% 30.41 in 10.0 mi NE 5.8 mph - N/A   Clear
5:55 PM 12.2 °F 4.3 °F 1.4 °F 62% 30.40 in 10.0 mi NE 4.6 mph - N/A   Clear
6:15 PM 12.2 °F 6.1 °F 1.4 °F 62% 30.40 in 10.0 mi NNE 3.5 mph - N/A   Clear
6:35 PM 12.2 °F 6.1 °F 1.4 °F 62% 30.40 in 10.0 mi NNE 3.5 mph - N/A   Clear
6:55 PM 10.4 °F 2.2 °F 1.4 °F 67% 30.39 in 10.0 mi NE 4.6 mph - N/A   Clear
7:15 PM 12.2 °F - 1.4 °F 62% 30.39 in 10.0 mi Calm Calm - N/A   Clear
7:35 PM 12.2 °F - 1.4 °F 62% 30.39 in 10.0 mi Calm Calm - N/A   Clear
7:55 PM 12.2 °F - 1.4 °F 62% 30.39 in 10.0 mi Calm Calm - N/A   Clear
8:15 PM 8.6 °F - 1.4 °F 73% 30.38 in 10.0 mi Calm Calm - N/A   Clear
8:35 PM 10.4 °F - 1.4 °F 67% 30.38 in 10.0 mi Calm Calm - N/A   Clear
8:55 PM 8.6 °F - 1.4 °F 73% 30.38 in 10.0 mi Calm Calm - N/A   Clear
9:15 PM 8.6 °F - 1.4 °F 73% 30.39 in 10.0 mi Calm Calm - N/A   Clear
9:35 PM 6.8 °F - -0.4 °F 72% 30.39 in 10.0 mi Calm Calm - N/A   Clear
9:55 PM 6.8 °F - -0.4 °F 72% 30.39 in 10.0 mi Calm Calm - N/A   Clear
10:35 PM 5.0 °F - -0.4 °F 78% 30.40 in 10.0 mi Calm Calm - N/A   Clear
10:55 PM 3.2 °F - -0.4 °F 85% 30.40 in 10.0 mi Calm Calm - N/A   Clear
11:15 PM 3.2 °F -7.8 °F -2.2 °F 78% 30.39 in 10.0 mi NNE 5.8 mph - N/A   Clear
11:35 PM 5.0 °F - -2.2 °F 72% 30.39 in 10.0 mi Calm Calm - N/A   Clear
11:55 PM 3.2 °F - -0.4 °F 85% 30.40 in 10.0 mi Calm Calm - N/A   Clear